Location: Norton
(51.3000°N, 0.8167°E)
Time: 17:14:45
(UTC+00:00)

Cosmos 990 Rocket - Pass Details

Date: 03 March 2021
Orbit: 746 x 769 km, 74.0° (Epoch: 13 April)

Event Time Altitude Azimuth Distance (km) Brightness Sun altitude
Rises 20:27:13 0° 336° (NNW) 3,211 7.9 -26.2°
Reaches altitude 10° 20:29:36 10° 339° (NNW) 2,285 7.0 -26.5°
Enters shadow 20:34:01 59° 15° (NNE) 869 4.2 -27.2°
